Fort Worth Meacham International Airport Fort Worth US
ICAO: KFTW
IATA: FTW
Category: Large
Scheduled Services: No

Elevation: 710 ft
TransAlt. 18000 ft.

Airport Communications:
RGNL APP DEP:118.1
ATIS:120.7
CLNC DEL:124.65
GND:121.9
FORT WORTH RDO:122.6
TWR:118.3
UNICOM:122.95

KFTW Zoom In..

Runways:

(A) RW 09 length 3677 ft width 100 ft
---- / hdg 92

(B) RW 16 length 7502 ft width 150 ft
ILS 109.90 / hdg 164

(C) RW 17 length 4005 ft width 75 ft
---- / hdg 164

(D) RW 27 length 3677 ft width 100 ft
---- / hdg 272

(E) RW 34 length 7502 ft width 150 ft
ILS 109.90 / hdg 344

(F) RW 35 length 4005 ft width 75 ft
---- / hdg 344

Location; KFTW
Day. 20 / Time. 19.53 Zulu
* Altimeter: 29.87
* Temperature: 41° c. 105.8°f.
* Wind from: 150° Speed 07 kn with Gusts up to 17 kn.
Dewpoint: 17° c.
Visibility: 10 Statute Miles.
Clouds: Clear (automated report).

KFTW 201953Z 15007G17KT 110V210 10SM CLR 41/17 A2987 RMK AO2 SLP103 T04060167


Wind From 150°
Speed 07 kn.

 
 
jpsmedia.com for Web Design worldairports.se 2018   terms of use